QPF
0.00 0.00 0.00 0.01 0.01 0.01 0.01 0.02 0.02 0.03 0.08 0.08 0.05 0.04 0.03 0.04 0.03 0.03 0.01 0.01 0.00 0.01 0.01 0.03 0.05 0.03 0.01 0.01 0.01 0.01 0.02 0.02 0.01 0.01 0.01 0.01 0.01 0.01 0.01 0.02 0.02 0.03 0.03 0.03 0.04 0.04 0.05 0.04 0.03
0.00 0.00 0.00 0.01 0.01 0.01 0.02 0.02 0.02 0.04 0.07 0.10 0.07 0.04 0.04 0.03 0.04 0.04 0.02 0.02 0.01 0.01 0.01 0.01 0.04 0.04 0.02 0.01 0.01 0.01 0.02 0.01 0.01 0.01 0.01 0.01 0.01 0.01 0.01 0.02 0.01 0.01 0.02 0.02 0.02 0.03 0.03 0.03 0.02
0.00 0.00 0.01 0.01 0.02 0.01 0.02 0.03 0.03 0.04 0.06 0.08 0.09 0.06 0.05 0.03 0.09 0.08 0.05 0.02 0.02 0.01 0.01 0.01 0.03 0.04 0.04 0.02 0.02 0.02 0.02 0.02 0.01 0.01 0.01 0.01 0.01 0.01 0.01 0.01 0.01 0.01 0.01 0.02 0.01 0.02 0.01 0.01 0.01
0.00 0.00 0.01 0.01 0.01 0.01 0.01 0.04 0.06 0.06 0.08 0.09 0.06 0.06 0.05 0.04 0.07 0.09 0.07 0.04 0.03 0.03 0.02 0.03 0.03 0.03 0.05 0.03 0.02 0.02 0.02 0.02 0.01 0.01 0.01 0.01 0.02 0.02 0.02 0.01 0.01 0.01 0.01 0.01 0.01 0.02 0.01 0.01 0.01
0.00 0.00 0.00 0.01 0.01 0.01 0.01 0.04 0.06 0.06 0.04 0.04 0.03 0.05 0.06 0.08 0.11 0.09 0.07 0.08 0.05 0.05 0.04 0.04 0.04 0.04 0.04 0.03 0.02 0.01 0.01 0.01 0.02 0.02 0.02 0.02 0.03 0.03 0.02 0.01 0.00 0.00 0.01 0.01 0.01 0.01 0.01 0.02 0.02
0.00 0.00 0.00 0.00 0.01 0.01 0.03 0.03 0.04 0.03 0.02 0.02 0.02 0.03 0.04 0.09 0.15 0.14 0.09 0.10 0.07 0.04 0.04 0.04 0.04 0.04 0.03 0.03 0.04 0.03 0.02 0.02 0.02 0.03 0.03 0.02 0.02 0.02 0.01 0.00 0.00 0.01 0.01 0.01 0.01 0.01 0.01 0.01 0.02
0.00 0.00 0.00 0.00 0.00 0.01 0.02 0.03 0.03 0.01 0.02 0.02 0.02 0.02 0.04 0.08 0.19 0.21 0.11 0.08 0.06 0.05 0.05 0.03 0.02 0.03 0.05 0.04 0.05 0.04 0.03 0.03 0.03 0.03 0.02 0.02 0.02 0.01 0.01 0.01 0.01 0.01 0.01 0.01 0.01 0.01 0.02 0.01 0.01
0.00 0.00 0.00 0.00 0.00 0.01 0.01 0.01 0.02 0.01 0.02 0.02 0.02 0.02 0.03 0.06 0.15 0.21 0.13 0.12 0.10 0.08 0.06 0.03 0.03 0.04 0.05 0.05 0.06 0.05 0.03 0.02 0.03 0.03 0.03 0.02 0.01 0.01 0.02 0.02 0.02 0.01 0.00 0.01 0.01 0.01 0.01 0.01 0.01
0.00 0.00 0.00 0.00 0.00 0.01 0.01 0.01 0.02 0.01 0.02 0.01 0.01 0.02 0.05 0.08 0.11 0.15 0.14 0.20 0.17 0.11 0.08 0.06 0.04 0.04 0.04 0.04 0.06 0.07 0.07 0.05 0.04 0.03 0.03 0.02 0.01 0.01 0.01 0.01 0.03 0.02 0.01 0.01 0.01 0.01 0.01 0.01 0.01
0.00 0.00 0.00 0.00 0.00 0.01 0.01 0.01 0.01 0.01 0.01 0.03 0.04 0.06 0.16 0.16 0.15 0.16 0.12 0.15 0.17 0.12 0.07 0.07 0.06 0.05 0.04 0.05 0.07 0.10 0.10 0.07 0.05 0.04 0.03 0.02 0.01 0.01 0.01 0.02 0.04 0.04 0.02 0.01 0.02 0.02 0.01 0.01 0.01
0.00 0.00 0.00 0.00 0.00 0.01 0.01 0.01 0.00 0.01 0.01 0.02 0.06 0.11 0.20 0.17 0.20 0.19 0.14 0.12 0.10 0.09 0.07 0.06 0.07 0.07 0.06 0.06 0.06 0.05 0.05 0.04 0.03 0.03 0.03 0.02 0.01 0.01 0.02 0.02 0.03 0.03 0.03 0.02 0.03 0.04 0.01 0.01 0.01
0.00 0.00 0.00 0.00 0.00 0.00 0.00 0.01 0.01 0.01 0.01 0.02 0.04 0.08 0.13 0.15 0.22 0.20 0.14 0.11 0.11 0.09 0.06 0.05 0.07 0.08 0.07 0.05 0.05 0.03 0.05 0.05 0.03 0.02 0.02 0.03 0.03 0.03 0.02 0.02 0.01 0.01 0.01 0.01 0.02 0.02 0.02 0.01 0.01
0.00 0.00 0.00 0.00 0.00 0.01 0.01 0.01 0.01 0.01 0.02 0.02 0.03 0.05 0.08 0.11 0.21 0.21 0.19 0.16 0.14 0.10 0.08 0.06 0.07 0.07 0.08 0.08 0.07 0.04 0.04 0.04 0.03 0.03 0.03 0.03 0.04 0.05 0.04 0.02 0.01 0.01 0.01 0.02 0.02 0.02 0.02 0.02 0.01
0.00 0.00 0.00 0.00 0.01 0.01 0.01 0.00 0.00 0.01 0.01 0.03 0.05 0.05 0.05 0.06 0.10 0.13 0.14 0.13 0.12 0.09 0.06 0.07 0.07 0.08 0.08 0.09 0.08 0.07 0.05 0.05 0.04 0.04 0.04 0.03 0.03 0.03 0.03 0.03 0.02 0.01 0.02 0.04 0.04 0.04 0.03 0.02 0.02
0.00 0.00 0.00 0.00 0.00 0.01 0.00 0.00 0.00 0.00 0.01 0.02 0.04 0.05 0.04 0.05 0.06 0.08 0.10 0.10 0.10 0.09 0.08 0.07 0.07 0.09 0.12 0.12 0.09 0.07 0.06 0.06 0.06 0.05 0.04 0.03 0.03 0.03 0.03 0.03 0.02 0.01 0.01 0.03 0.04 0.04 0.03 0.02 0.02
0.00 0.00 0.01 0.00 0.00 0.00 0.00 0.01 0.01 0.01 0.01 0.03 0.04 0.05 0.04 0.04 0.05 0.06 0.08 0.08 0.10 0.09 0.09 0.08 0.06 0.07 0.10 0.11 0.11 0.09 0.08 0.09 0.09 0.07 0.05 0.04 0.05 0.04 0.04 0.03 0.03 0.01 0.01 0.02 0.03 0.03 0.02 0.02 0.02
0.00 0.00 0.00 0.00 0.00 0.00 0.00 0.00 0.01 0.01 0.01 0.01 0.03 0.04 0.04 0.04 0.03 0.05 0.07 0.07 0.10 0.09 0.08 0.09 0.10 0.10 0.10 0.10 0.11 0.11 0.12 0.11 0.10 0.08 0.06 0.06 0.04 0.03 0.03 0.02 0.02 0.01 0.01 0.02 0.02 0.02 0.02 0.02 0.01
0.00 0.00 0.00 0.00 0.00 0.00 0.00 0.00 0.01 0.01 0.01 0.01 0.02 0.03 0.04 0.04 0.04 0.05 0.06 0.08 0.10 0.09 0.10 0.11 0.13 0.14 0.13 0.12 0.13 0.12 0.11 0.10 0.09 0.10 0.06 0.05 0.04 0.03 0.02 0.02 0.02 0.02 0.02 0.02 0.01 0.02 0.03 0.03 0.02
0.00 0.00 0.00 0.00 0.00 0.00 0.00 0.00 0.01 0.01 0.02 0.03 0.02 0.02 0.03 0.04 0.04 0.05 0.07 0.08 0.09 0.08 0.09 0.12 0.12 0.13 0.11 0.09 0.09 0.08 0.07 0.07 0.08 0.09 0.08 0.07 0.05 0.04 0.04 0.04 0.03 0.02 0.02 0.03 0.03 0.03 0.03 0.03 0.03
0.00 0.00 0.01 0.01 0.01 0.00 0.00 0.01 0.01 0.02 0.03 0.03 0.03 0.03 0.03 0.03 0.04 0.04 0.06 0.07 0.07 0.07 0.07 0.11 0.10 0.11 0.13 0.10 0.08 0.07 0.07 0.08 0.07 0.08 0.08 0.07 0.05 0.04 0.04 0.03 0.03 0.03 0.03 0.03 0.02 0.01 0.01 0.02 0.03
0.01 0.01 0.01 0.01 0.01 0.00 0.00 0.01 0.01 0.02 0.03 0.02 0.03 0.03 0.03 0.03 0.03 0.03 0.04 0.05 0.06 0.05 0.05 0.07 0.08 0.08 0.11 0.11 0.08 0.05 0.05 0.05 0.06 0.06 0.07 0.06 0.05 0.04 0.03 0.02 0.02 0.02 0.02 0.02 0.01 0.01 0.00 0.01 0.01
0.01 0.01 0.01 0.01 0.01 0.01 0.00 0.01 0.00 0.02 0.02 0.02 0.03 0.03 0.03 0.03 0.04 0.03 0.04 0.05 0.05 0.04 0.03 0.05 0.06 0.06 0.06 0.09 0.08 0.04 0.03 0.03 0.04 0.03 0.04 0.04 0.04 0.03 0.02 0.02 0.02 0.02 0.02 0.01 0.01 0.01 0.00 0.00 0.01
0.00 0.01 0.01 0.01 0.01 0.01 0.01 0.00 0.00 0.00 0.01 0.01 0.01 0.02 0.03 0.04 0.06 0.04 0.03 0.04 0.04 0.02 0.02 0.03 0.04 0.04 0.05 0.06 0.06 0.05 0.03 0.03 0.03 0.03 0.03 0.04 0.03 0.03 0.02 0.02 0.02 0.02 0.02 0.01 0.01 0.01 0.01 0.01 0.01
0.00 0.01 0.00 0.01 0.01 0.01 0.00 0.00 0.00 0.00 0.00 0.00 0.01 0.02 0.03 0.05 0.05 0.04 0.04 0.04 0.03 0.02 0.02 0.03 0.03 0.04 0.05 0.05 0.05 0.04 0.03 0.03 0.02 0.02 0.02 0.03 0.04 0.02 0.02 0.02 0.01 0.01 0.02 0.01 0.01 0.01 0.01 0.01 0.01
0.00 0.01 0.01 0.01 0.01 0.00 0.00 0.00 0.00 0.00 0.00 0.00 0.01 0.01 0.03 0.04 0.04 0.03 0.03 0.03 0.02 0.01 0.01 0.02 0.02 0.04 0.04 0.05 0.05 0.03 0.03 0.03 0.02 0.02 0.02 0.02 0.02 0.02 0.01 0.02 0.01 0.00 0.00 0.00 0.00 0.00 0.00 0.00 0.00
0.00 0.01 0.01 0.01 0.00 0.00 0.00 0.00 0.00 0.00 0.00 0.00 0.00 0.00 0.02 0.03 0.03 0.03 0.03 0.03 0.03 0.02 0.01 0.02 0.02 0.03 0.03 0.04 0.06 0.04 0.03 0.03 0.02 0.01 0.02 0.01 0.01 0.01 0.01 0.01 0.00 0.00 0.00 0.00 0.00 0.00 0.00 0.00 0.00
0.00 0.01 0.01 0.01 0.00 0.00 0.00 0.00 0.00 0.00 0.00 0.00 0.00 0.00 0.01 0.02 0.02 0.02 0.02 0.03 0.02 0.02 0.02 0.01 0.01 0.02 0.02 0.03 0.05 0.04 0.03 0.02 0.01 0.01 0.01 0.01 0.00 0.00 0.01 0.01 0.01 0.00 0.00 0.00 0.00 0.00 0.00 0.00 0.00
0.01 0.01 0.01 0.01 0.01 0.00 0.01 0.00 0.00 0.00 0.00 0.00 0.00 0.00 0.01 0.02 0.02 0.02 0.02 0.02 0.02 0.02 0.02 0.01 0.01 0.01 0.01 0.02 0.03 0.03 0.03 0.02 0.01 0.01 0.00 0.00 0.00 0.00 0.00 0.01 0.00 0.00 0.00 0.00 0.00 0.00 0.00 0.00 0.00
0.01 0.01 0.01 0.01 0.01 0.01 0.01 0.00 0.00 0.00 0.00 0.00 0.00 0.01 0.01 0.01 0.01 0.02 0.02 0.01 0.01 0.01 0.01 0.01 0.00 0.00 0.01 0.01 0.01 0.01 0.01 0.01 0.01 0.01 0.01 0.01 0.01 0.00 0.00 0.00 0.00 0.00 0.00 0.00 0.00 0.00 0.00 0.00 0.00
0.01 0.01 0.01 0.01 0.01 0.01 0.00 0.00 0.00 0.00 0.00 0.00 0.00 0.00 0.01 0.01 0.01 0.01 0.01 0.01 0.01 0.00 0.00 0.00 0.00 0.00 0.00 0.01 0.01 0.01 0.00 0.00 0.00 0.00 0.00 0.00 0.00 0.00 0.00 0.00 0.00 0.00 0.00 0.00 0.00 0.00 0.00 0.00 0.00
MSLP
1007.94 1008.91 1010.01 1011.09 1012.02 1012.69 1013.06 1013.13 1012.96 1012.64 1012.26 1011.90 1011.62 1011.41 1011.27 1011.16 1011.04 1010.88 1010.71 1010.54 1010.42 1010.39 1010.50 1010.75 1011.12 1011.56 1012.01 1012.42 1012.74 1012.96 1013.09 1013.16 1013.21 1013.28 1013.40 1013.58 1013.79 1014.02 1014.24 1014.43 1014.56 1014.65 1014.71 1014.75 1014.79 1014.85 1014.93 1015.02 1015.11
1008.35 1009.46 1010.62 1011.67 1012.49 1012.99 1013.16 1013.02 1012.66 1012.18 1011.68 1011.26 1010.94 1010.73 1010.60 1010.51 1010.43 1010.32 1010.21 1010.11 1010.08 1010.15 1010.35 1010.68 1011.12 1011.62 1012.12 1012.56 1012.92 1013.17 1013.34 1013.45 1013.54 1013.63 1013.76 1013.92 1014.11 1014.30 1014.48 1014.62 1014.74 1014.83 1014.91 1014.98 1015.06 1015.15 1015.25 1015.34 1015.42
1008.85 1010.03 1011.18 1012.14 1012.81 1013.13 1013.10 1012.77 1012.26 1011.67 1011.11 1010.65 1010.33 1010.14 1010.04 1009.99 1009.94 1009.88 1009.82 1009.79 1009.83 1009.97 1010.25 1010.65 1011.14 1011.68 1012.22 1012.70 1013.09 1013.39 1013.60 1013.75 1013.88 1014.00 1014.13 1014.28 1014.42 1014.56 1014.69 1014.79 1014.88 1014.98 1015.08 1015.19 1015.32 1015.45 1015.58 1015.68 1015.76
1009.39 1010.56 1011.63 1012.46 1012.95 1013.09 1012.88 1012.42 1011.81 1011.17 1010.60 1010.17 1009.88 1009.72 1009.66 1009.64 1009.62 1009.60 1009.58 1009.60 1009.70 1009.91 1010.24 1010.68 1011.21 1011.78 1012.33 1012.83 1013.25 1013.58 1013.84 1014.05 1014.21 1014.36 1014.50 1014.63 1014.74 1014.83 1014.91 1014.98 1015.05 1015.15 1015.27 1015.43 1015.60 1015.77 1015.93 1016.04 1016.12
1009.88 1010.98 1011.91 1012.57 1012.90 1012.87 1012.55 1012.01 1011.38 1010.76 1010.23 1009.85 1009.62 1009.51 1009.48 1009.48 1009.49 1009.49 1009.51 1009.57 1009.72 1009.97 1010.34 1010.81 1011.35 1011.92 1012.46 1012.96 1013.39 1013.75 1014.04 1014.29 1014.51 1014.69 1014.85 1014.98 1015.07 1015.13 1015.17 1015.22 1015.28 1015.38 1015.52 1015.71 1015.91 1016.12 1016.29 1016.41 1016.49
1010.27 1011.23 1012.00 1012.48 1012.65 1012.51 1012.13 1011.59 1011.00 1010.46 1010.03 1009.73 1009.57 1009.50 1009.50 1009.51 1009.53 1009.55 1009.59 1009.70 1009.89 1010.18 1010.58 1011.05 1011.58 1012.12 1012.63 1013.09 1013.51 1013.86 1014.19 1014.47 1014.74 1014.97 1015.17 1015.32 1015.41 1015.47 1015.49 1015.52 1015.57 1015.67 1015.83 1016.03 1016.25 1016.47 1016.64 1016.76 1016.83
1010.52 1011.31 1011.89 1012.21 1012.25 1012.05 1011.67 1011.20 1010.72 1010.30 1009.99 1009.80 1009.70 1009.67 1009.68 1009.70 1009.72 1009.75 1009.82 1009.96 1010.19 1010.52 1010.93 1011.40 1011.89 1012.38 1012.83 1013.23 1013.60 1013.94 1014.27 1014.59 1014.90 1015.19 1015.45 1015.64 1015.76 1015.83 1015.86 1015.89 1015.93 1016.03 1016.18 1016.37 1016.59 1016.80 1016.96 1017.07 1017.12
1010.60 1011.21 1011.61 1011.79 1011.75 1011.55 1011.23 1010.87 1010.53 1010.27 1010.09 1010.00 1009.97 1009.97 1009.98 1009.99 1010.01 1010.05 1010.15 1010.33 1010.60 1010.95 1011.37 1011.82 1012.27 1012.68 1013.05 1013.38 1013.68 1013.99 1014.31 1014.66 1015.02 1015.37 1015.68 1015.94 1016.11 1016.21 1016.26 1016.29 1016.33 1016.41 1016.54 1016.71 1016.90 1017.08 1017.22 1017.30 1017.34
1010.53 1010.98 1011.23 1011.31 1011.23 1011.05 1010.82 1010.61 1010.43 1010.33 1010.29 1010.29 1010.32 1010.34 1010.34 1010.34 1010.35 1010.41 1010.53 1010.75 1011.06 1011.44 1011.87 1012.30 1012.69 1013.02 1013.30 1013.54 1013.78 1014.03 1014.34 1014.70 1015.10 1015.51 1015.90 1016.21 1016.45 1016.59 1016.66 1016.69 1016.72 1016.78 1016.88 1017.02 1017.18 1017.32 1017.43 1017.49 1017.50
1010.39 1010.69 1010.83 1010.83 1010.75 1010.62 1010.51 1010.43 1010.42 1010.46 1010.53 1010.61 1010.68 1010.71 1010.71 1010.70 1010.71 1010.78 1010.94 1011.19 1011.54 1011.95 1012.37 1012.77 1013.11 1013.37 1013.56 1013.73 1013.89 1014.10 1014.39 1014.76 1015.19 1015.65 1016.10 1016.47 1016.76 1016.95 1017.04 1017.08 1017.10 1017.13 1017.20 1017.30 1017.41 1017.52 1017.60 1017.64 1017.64
1010.22 1010.42 1010.47 1010.44 1010.37 1010.31 1010.29 1010.35 1010.46 1010.61 1010.78 1010.91 1011.00 1011.04 1011.04 1011.03 1011.06 1011.15 1011.34 1011.63 1012.00 1012.42 1012.83 1013.21 1013.50 1013.70 1013.83 1013.93 1014.04 1014.22 1014.49 1014.86 1015.31 1015.81 1016.30 1016.72 1017.05 1017.27 1017.39 1017.43 1017.44 1017.45 1017.49 1017.55 1017.63 1017.72 1017.78 1017.80 1017.79
1010.12 1010.24 1010.24 1010.19 1010.14 1010.13 1010.20 1010.34 1010.54 1010.77 1010.99 1011.16 1011.27 1011.32 1011.33 1011.34 1011.38 1011.50 1011.71 1012.03 1012.41 1012.83 1013.23 1013.57 1013.82 1013.98 1014.07 1014.14 1014.23 1014.38 1014.64 1015.02 1015.48 1016.00 1016.50 1016.96 1017.31 1017.56 1017.69 1017.74 1017.75 1017.75 1017.76 1017.80 1017.86 1017.93 1017.98 1018.01 1018.01
1010.12 1010.20 1010.17 1010.11 1010.08 1010.11 1010.22 1010.40 1010.65 1010.91 1011.15 1011.35 1011.48 1011.55 1011.59 1011.62 1011.70 1011.84 1012.07 1012.39 1012.76 1013.15 1013.53 1013.84 1014.07 1014.21 1014.29 1014.35 1014.44 1014.60 1014.87 1015.24 1015.70 1016.21 1016.72 1017.17 1017.54 1017.80 1017.95 1018.01 1018.03 1018.02 1018.03 1018.06 1018.11 1018.17 1018.23 1018.28 1018.29
1010.26 1010.31 1010.27 1010.21 1010.18 1010.22 1010.34 1010.53 1010.77 1011.02 1011.27 1011.47 1011.62 1011.73 1011.81 1011.89 1012.01 1012.18 1012.41 1012.71 1013.05 1013.40 1013.73 1014.01 1014.22 1014.36 1014.47 1014.56 1014.68 1014.87 1015.15 1015.51 1015.96 1016.44 1016.93 1017.36 1017.72 1017.99 1018.15 1018.24 1018.27 1018.28 1018.30 1018.33 1018.39 1018.46 1018.53 1018.59 1018.63
1010.51 1010.54 1010.50 1010.44 1010.41 1010.44 1010.53 1010.69 1010.89 1011.12 1011.34 1011.55 1011.72 1011.88 1012.02 1012.17 1012.33 1012.52 1012.75 1013.01 1013.29 1013.58 1013.85 1014.09 1014.29 1014.46 1014.60 1014.76 1014.94 1015.17 1015.46 1015.83 1016.24 1016.68 1017.12 1017.52 1017.86 1018.12 1018.31 1018.42 1018.48 1018.52 1018.56 1018.61 1018.68 1018.76 1018.85 1018.93 1018.99
1010.81 1010.84 1010.80 1010.75 1010.72 1010.73 1010.79 1010.89 1011.03 1011.20 1011.39 1011.59 1011.80 1012.01 1012.23 1012.44 1012.66 1012.87 1013.09 1013.30 1013.50 1013.70 1013.90 1014.10 1014.30 1014.50 1014.71 1014.94 1015.19 1015.48 1015.80 1016.16 1016.54 1016.92 1017.30 1017.65 1017.96 1018.21 1018.42 1018.56 1018.67 1018.75 1018.82 1018.90 1018.97 1019.06 1019.16 1019.25 1019.33
1011.08 1011.13 1011.12 1011.10 1011.08 1011.07 1011.08 1011.12 1011.19 1011.29 1011.43 1011.62 1011.85 1012.12 1012.41 1012.71 1012.98 1013.21 1013.40 1013.56 1013.68 1013.80 1013.92 1014.07 1014.27 1014.51 1014.79 1015.11 1015.45 1015.80 1016.15 1016.50 1016.83 1017.15 1017.47 1017.76 1018.03 1018.28 1018.50 1018.69 1018.84 1018.97 1019.08 1019.17 1019.26 1019.35 1019.44 1019.53 1019.62
1011.27 1011.35 1011.40 1011.43 1011.44 1011.43 1011.41 1011.38 1011.36 1011.37 1011.46 1011.62 1011.87 1012.18 1012.55 1012.91 1013.24 1013.50 1013.68 1013.79 1013.84 1013.87 1013.92 1014.03 1014.23 1014.51 1014.87 1015.28 1015.70 1016.12 1016.50 1016.84 1017.13 1017.39 1017.63 1017.86 1018.10 1018.34 1018.58 1018.81 1019.02 1019.19 1019.34 1019.45 1019.54 1019.61 1019.69 1019.76 1019.85
1011.33 1011.47 1011.61 1011.73 1011.80 1011.82 1011.77 1011.67 1011.56 1011.47 1011.47 1011.58 1011.82 1012.17 1012.59 1013.02 1013.41 1013.71 1013.89 1013.96 1013.95 1013.92 1013.92 1014.00 1014.20 1014.52 1014.95 1015.44 1015.95 1016.42 1016.84 1017.17 1017.43 1017.63 1017.80 1017.99 1018.19 1018.43 1018.69 1018.96 1019.21 1019.43 1019.60 1019.73 1019.81 1019.86 1019.91 1019.96 1020.03
1011.26 1011.50 1011.77 1012.01 1012.18 1012.24 1012.18 1012.01 1011.79 1011.59 1011.47 1011.50 1011.69 1012.04 1012.49 1012.99 1013.44 1013.78 1013.99 1014.05 1014.02 1013.95 1013.91 1013.97 1014.18 1014.54 1015.02 1015.59 1016.17 1016.70 1017.15 1017.48 1017.71 1017.87 1018.00 1018.14 1018.32 1018.56 1018.83 1019.14 1019.43 1019.69 1019.88 1020.01 1020.08 1020.11 1020.12 1020.15 1020.20
1011.08 1011.47 1011.90 1012.30 1012.59 1012.71 1012.64 1012.40 1012.06 1011.71 1011.44 1011.35 1011.46 1011.78 1012.24 1012.78 1013.29 1013.70 1013.95 1014.05 1014.02 1013.94 1013.90 1013.95 1014.17 1014.55 1015.09 1015.71 1016.35 1016.93 1017.41 1017.76 1017.98 1018.12 1018.22 1018.34 1018.50 1018.74 1019.03 1019.36 1019.68 1019.97 1020.18 1020.30 1020.36 1020.36 1020.34 1020.34 1020.37
1010.85 1011.42 1012.05 1012.62 1013.05 1013.23 1013.15 1012.83 1012.35 1011.83 1011.39 1011.14 1011.13 1011.37 1011.83 1012.39 1012.97 1013.45 1013.78 1013.94 1013.96 1013.91 1013.87 1013.93 1014.16 1014.56 1015.12 1015.78 1016.46 1017.08 1017.59 1017.97 1018.20 1018.34 1018.44 1018.55 1018.71 1018.95 1019.25 1019.60 1019.94 1020.24 1020.46 1020.58 1020.62 1020.61 1020.57 1020.54 1020.56
1010.64 1011.41 1012.25 1013.01 1013.56 1013.81 1013.71 1013.29 1012.66 1011.94 1011.30 1010.86 1010.71 1010.86 1011.27 1011.86 1012.49 1013.06 1013.49 1013.74 1013.83 1013.83 1013.83 1013.91 1014.14 1014.55 1015.11 1015.78 1016.48 1017.13 1017.68 1018.08 1018.34 1018.50 1018.61 1018.73 1018.91 1019.15 1019.46 1019.82 1020.17 1020.47 1020.69 1020.82 1020.85 1020.83 1020.77 1020.74 1020.76
1010.51 1011.48 1012.51 1013.44 1014.10 1014.39 1014.26 1013.73 1012.93 1012.01 1011.16 1010.53 1010.22 1010.26 1010.63 1011.22 1011.92 1012.58 1013.11 1013.47 1013.66 1013.74 1013.78 1013.88 1014.11 1014.51 1015.06 1015.71 1016.41 1017.07 1017.64 1018.08 1018.38 1018.57 1018.72 1018.86 1019.05 1019.30 1019.62 1019.98 1020.33 1020.63 1020.85 1020.97 1021.01 1020.99 1020.94 1020.91 1020.93
1010.48 1011.63 1012.82 1013.88 1014.62 1014.91 1014.73 1014.09 1013.13 1012.02 1010.97 1010.15 1009.69 1009.63 1009.95 1010.54 1011.29 1012.04 1012.69 1013.17 1013.47 1013.63 1013.72 1013.84 1014.07 1014.44 1014.95 1015.58 1016.25 1016.91 1017.49 1017.95 1018.29 1018.53 1018.72 1018.89 1019.11 1019.37 1019.69 1020.04 1020.38 1020.68 1020.90 1021.03 1021.07 1021.06 1021.03 1021.01 1021.04
1010.53 1011.81 1013.12 1014.25 1015.01 1015.29 1015.03 1014.29 1013.18 1011.91 1010.70 1009.73 1009.15 1009.00 1009.27 1009.87 1010.66 1011.50 1012.25 1012.84 1013.25 1013.49 1013.65 1013.79 1014.01 1014.35 1014.81 1015.39 1016.03 1016.66 1017.24 1017.72 1018.09 1018.38 1018.61 1018.83 1019.06 1019.34 1019.66 1020.00 1020.34 1020.62 1020.84 1020.98 1021.04 1021.05 1021.04 1021.04 1021.09
1010.63 1011.99 1013.33 1014.46 1015.20 1015.43 1015.09 1014.25 1013.04 1011.66 1010.34 1009.27 1008.60 1008.39 1008.63 1009.23 1010.06 1010.96 1011.80 1012.49 1013.00 1013.33 1013.54 1013.72 1013.93 1014.24 1014.66 1015.18 1015.76 1016.36 1016.92 1017.41 1017.81 1018.14 1018.41 1018.66 1018.93 1019.22 1019.54 1019.88 1020.20 1020.48 1020.70 1020.85 1020.92 1020.96 1020.97 1021.00 1021.07
1010.73 1012.07 1013.38 1014.44 1015.11 1015.25 1014.83 1013.93 1012.66 1011.23 1009.87 1008.77 1008.06 1007.82 1008.04 1008.64 1009.49 1010.43 1011.33 1012.10 1012.69 1013.10 1013.38 1013.59 1013.82 1014.11 1014.49 1014.96 1015.50 1016.05 1016.59 1017.07 1017.49 1017.84 1018.15 1018.44 1018.73 1019.04 1019.36 1019.70 1020.01 1020.29 1020.51 1020.67 1020.77 1020.83 1020.87 1020.92 1020.99
1010.76 1012.01 1013.20 1014.13 1014.67 1014.70 1014.22 1013.29 1012.02 1010.62 1009.29 1008.22 1007.53 1007.30 1007.51 1008.09 1008.93 1009.88 1010.81 1011.63 1012.28 1012.76 1013.11 1013.38 1013.64 1013.94 1014.30 1014.75 1015.24 1015.77 1016.28 1016.75 1017.17 1017.54 1017.88 1018.19 1018.51 1018.83 1019.17 1019.50 1019.82 1020.10 1020.32 1020.49 1020.61 1020.69 1020.75 1020.81 1020.90
1010.70 1011.79 1012.78 1013.53 1013.90 1013.83 1013.30 1012.37 1011.17 1009.85 1008.62 1007.64 1007.01 1006.81 1007.01 1007.57 1008.37 1009.29 1010.20 1011.03 1011.72 1012.26 1012.68 1013.03 1013.35 1013.69 1014.08 1014.52 1015.01 1015.51 1016.00 1016.46 1016.89 1017.27 1017.62 1017.96 1018.30 1018.64 1018.99 1019.33 1019.65 1019.93 1020.16 1020.34 1020.47 1020.56 1020.64 1020.71 1020.79
Thickness
5811 5808 5803 5792 5771 5753 5751 5764 5774 5775 5777 5783 5786 5782 5775 5769 5761 5760 5778 5787 5785 5781 5778 5776 5774 5772 5770 5768 5767 5766 5766 5766 5765 5765 5765 5765 5764 5764 5763 5763 5762 5761 5761 5760 5759 5758 5758 5757 5756
5810 5805 5795 5780 5757 5740 5749 5768 5772 5777 5784 5787 5786 5782 5776 5772 5776 5775 5778 5783 5783 5779 5776 5774 5772 5770 5768 5767 5765 5764 5764 5764 5763 5763 5763 5762 5762 5762 5761 5761 5760 5760 5759 5758 5757 5756 5755 5755 5754
5808 5803 5782 5765 5751 5744 5756 5772 5777 5783 5789 5786 5781 5780 5775 5772 5776 5776 5780 5782 5779 5776 5774 5773 5771 5768 5766 5765 5764 5763 5762 5761 5761 5761 5761 5760 5760 5759 5759 5758 5758 5757 5757 5756 5755 5754 5753 5753 5752
5802 5788 5774 5757 5751 5761 5770 5777 5781 5780 5783 5784 5779 5771 5774 5779 5779 5779 5780 5779 5775 5772 5771 5770 5769 5767 5764 5762 5761 5760 5760 5759 5759 5758 5758 5758 5757 5756 5756 5756 5755 5755 5754 5753 5752 5752 5751 5751 5751
5795 5776 5757 5745 5752 5768 5780 5785 5783 5775 5776 5779 5775 5766 5764 5775 5781 5780 5777 5774 5771 5769 5768 5767 5766 5764 5762 5760 5759 5758 5757 5757 5756 5755 5755 5755 5754 5754 5753 5753 5753 5752 5751 5751 5750 5749 5749 5749 5749
5779 5766 5744 5738 5753 5771 5782 5787 5783 5776 5776 5776 5772 5763 5760 5771 5773 5773 5773 5770 5768 5766 5765 5763 5762 5760 5759 5757 5756 5755 5754 5754 5753 5753 5752 5751 5751 5750 5750 5750 5750 5749 5749 5748 5747 5747 5746 5746 5746
5771 5756 5746 5749 5754 5766 5779 5786 5780 5775 5772 5773 5773 5759 5758 5764 5769 5769 5768 5766 5764 5762 5761 5760 5759 5757 5755 5753 5752 5752 5751 5751 5750 5749 5748 5748 5748 5747 5747 5746 5746 5746 5745 5745 5744 5744 5743 5743 5743
5779 5758 5749 5749 5755 5763 5780 5783 5782 5776 5771 5778 5774 5758 5754 5762 5766 5763 5761 5759 5758 5757 5757 5756 5755 5754 5752 5750 5749 5749 5748 5747 5747 5746 5745 5745 5744 5744 5744 5743 5743 5742 5742 5742 5741 5741 5740 5740 5740
5781 5750 5740 5751 5760 5768 5778 5776 5778 5782 5774 5772 5772 5768 5767 5766 5762 5756 5752 5749 5749 5750 5752 5752 5751 5749 5748 5747 5746 5745 5745 5744 5744 5743 5742 5742 5741 5741 5740 5740 5740 5739 5739 5739 5738 5738 5738 5737 5738
5768 5744 5753 5769 5775 5775 5777 5775 5774 5770 5764 5762 5762 5764 5766 5761 5756 5751 5747 5744 5743 5744 5746 5747 5746 5745 5744 5743 5743 5742 5741 5740 5740 5739 5739 5738 5738 5737 5737 5737 5737 5737 5736 5736 5735 5735 5735 5734 5734
5767 5758 5769 5777 5782 5781 5775 5773 5774 5765 5755 5760 5759 5757 5757 5754 5750 5748 5746 5744 5743 5743 5743 5743 5742 5742 5740 5740 5739 5738 5737 5737 5736 5735 5735 5735 5734 5734 5734 5733 5733 5733 5733 5732 5732 5732 5731 5731 5731
5768 5770 5776 5778 5782 5779 5774 5771 5766 5763 5763 5770 5767 5763 5756 5750 5747 5745 5743 5742 5741 5740 5740 5739 5739 5738 5737 5737 5736 5735 5734 5733 5732 5732 5732 5731 5731 5730 5730 5730 5730 5730 5729 5729 5728 5728 5728 5728 5729
5770 5772 5777 5778 5778 5776 5772 5766 5763 5761 5767 5769 5764 5758 5753 5749 5746 5744 5743 5741 5739 5737 5737 5737 5737 5735 5734 5733 5733 5732 5730 5730 5729 5728 5728 5728 5728 5727 5727 5727 5726 5726 5726 5726 5725 5725 5725 5725 5725
5774 5773 5773 5774 5774 5773 5766 5762 5759 5758 5764 5761 5756 5752 5750 5747 5744 5741 5739 5737 5736 5735 5735 5735 5734 5733 5732 5730 5729 5728 5727 5727 5726 5725 5725 5725 5725 5725 5724 5724 5723 5724 5723 5723 5722 5722 5722 5722 5722
5774 5765 5764 5768 5770 5768 5763 5750 5753 5759 5759 5753 5749 5747 5745 5743 5741 5740 5739 5736 5734 5733 5732 5732 5731 5730 5729 5727 5726 5725 5724 5724 5723 5722 5722 5722 5722 5722 5721 5720 5721 5720 5720 5720 5719 5719 5718 5719 5719
5762 5751 5744 5758 5764 5764 5754 5738 5752 5757 5753 5747 5745 5743 5740 5739 5738 5738 5737 5734 5733 5731 5729 5729 5729 5726 5725 5724 5723 5721 5721 5720 5719 5719 5719 5719 5719 5719 5718 5718 5717 5717 5717 5717 5716 5715 5714 5714 5714
5739 5732 5737 5749 5760 5758 5749 5739 5750 5754 5750 5744 5743 5741 5738 5735 5734 5734 5733 5732 5729 5728 5726 5725 5725 5723 5722 5721 5720 5719 5718 5717 5716 5716 5716 5716 5716 5716 5716 5715 5714 5715 5714 5714 5713 5712 5711 5710 5710
5728 5731 5735 5740 5753 5751 5743 5741 5747 5751 5748 5743 5741 5738 5736 5733 5732 5732 5730 5729 5726 5724 5723 5722 5722 5720 5719 5717 5716 5715 5714 5713 5713 5713 5713 5713 5713 5712 5712 5711 5712 5712 5711 5710 5710 5708 5708 5707 5707
5741 5736 5732 5742 5754 5747 5739 5738 5743 5747 5745 5741 5739 5736 5733 5732 5731 5729 5728 5726 5724 5721 5720 5719 5718 5717 5716 5714 5713 5711 5710 5710 5709 5709 5710 5710 5709 5709 5709 5709 5709 5709 5708 5708 5707 5706 5704 5703 5703
5739 5732 5731 5741 5751 5745 5736 5736 5744 5745 5745 5744 5740 5736 5733 5729 5727 5725 5723 5722 5721 5719 5718 5717 5716 5716 5715 5714 5712 5711 5710 5707 5706 5706 5707 5707 5706 5706 5707 5706 5706 5705 5705 5704 5704 5704 5701 5700 5700
5735 5731 5733 5734 5741 5740 5733 5728 5735 5742 5744 5743 5741 5738 5735 5731 5726 5724 5722 5720 5719 5718 5718 5718 5715 5715 5714 5712 5710 5709 5707 5705 5702 5702 5703 5704 5704 5704 5704 5703 5703 5703 5702 5701 5701 5701 5700 5696 5695
5728 5744 5742 5737 5725 5715 5724 5705 5726 5733 5735 5738 5739 5737 5734 5732 5728 5724 5722 5720 5719 5719 5719 5717 5715 5714 5712 5712 5710 5708 5705 5702 5701 5701 5701 5701 5701 5701 5701 5701 5700 5700 5699 5699 5699 5698 5697 5696 5693
5740 5748 5741 5734 5721 5711 5714 5704 5715 5727 5727 5735 5740 5739 5737 5734 5730 5726 5724 5722 5721 5720 5718 5716 5714 5713 5712 5711 5709 5707 5704 5702 5700 5699 5698 5698 5698 5698 5698 5698 5698 5697 5696 5696 5696 5695 5695 5694 5692
5748 5738 5726 5713 5706 5696 5709 5700 5707 5720 5733 5740 5743 5743 5739 5735 5732 5727 5725 5723 5721 5719 5717 5715 5713 5711 5710 5709 5708 5706 5704 5701 5699 5697 5696 5695 5695 5696 5696 5696 5696 5695 5694 5693 5693 5692 5692 5691 5690
5738 5713 5691 5690 5681 5688 5708 5703 5712 5740 5747 5748 5747 5745 5742 5738 5732 5728 5724 5722 5720 5718 5717 5715 5713 5711 5710 5708 5707 5706 5704 5702 5700 5697 5696 5694 5694 5694 5695 5695 5694 5693 5692 5691 5691 5690 5689 5689 5688
5728 5716 5691 5682 5680 5689 5703 5702 5726 5750 5754 5755 5753 5749 5744 5739 5735 5731 5728 5725 5722 5720 5717 5715 5712 5710 5709 5708 5707 5705 5703 5701 5700 5698 5696 5695 5695 5694 5694 5693 5692 5691 5691 5690 5688 5687 5686 5686 5685
5722 5713 5716 5695 5690 5686 5695 5710 5732 5749 5750 5751 5750 5747 5744 5742 5738 5734 5730 5727 5724 5721 5718 5716 5713 5711 5709 5708 5706 5704 5702 5701 5700 5698 5696 5695 5694 5694 5692 5691 5690 5689 5688 5687 5686 5685 5684 5683 5682
5731 5717 5701 5690 5680 5679 5695 5705 5716 5738 5742 5746 5746 5746 5746 5744 5741 5737 5733 5729 5727 5724 5720 5717 5715 5712 5710 5708 5706 5704 5702 5701 5699 5698 5696 5695 5694 5693 5691 5690 5689 5687 5686 5685 5684 5683 5682 5681 5680
5718 5712 5701 5688 5688 5680 5680 5701 5739 5743 5747 5747 5748 5750 5748 5746 5744 5740 5737 5733 5729 5725 5721 5718 5715 5712 5710 5708 5706 5704 5702 5700 5699 5697 5696 5695 5693 5692 5691 5689 5688 5686 5685 5683 5682 5681 5680 5679 5677
5723 5714 5701 5691 5687 5684 5682 5702 5750 5750 5752 5751 5751 5752 5750 5748 5746 5743 5738 5733 5729 5726 5722 5719 5717 5714 5711 5709 5706 5704 5701 5699 5698 5697 5696 5694 5693 5691 5690 5689 5687 5685 5684 5682 5681 5680 5678 5677 5675